DELTA 1 DEB, 40754

Orbit data source: Space-Track

DELTA 1 DEB, 40754 is space debris in SSO originally from a launch on Thu, 29 Jul 1976 UTC launched from the Air Force Western Test Range (AFWTR). Debris objects in space refer to the collection of defunct objects orbiting the Earth. Examples of debris include non-operational satellites, rocket bodies, and fragments generated from explosions, collisions, or faulty payload assembly.

Loading next visibility...
Identifier
40754, 1976-077FX
Orbit
SSO
Country
Flag of USUS
Related business
Manufacturer
Unknown
Mission
Spacecraft
Bus & Motor
Unknown
Mass
Unknown
Launch date (UTC)
1976-07-29 (49 years ago)
Launch vehicle
Unknown
Launch site
Air Force Western Test Range (AFWTR)
Object type
Payload
Rocket body
Debris
Shape & HBR
Unknown shape, 0.1 m
Radar Cross Section
Small (<0.1 m²)

Expand to show TLE details & history
Last TLE update: 21 hours ago

TLE from 21 hours ago
0 DELTA 1 DEB
1 40754U 76077FX  25288.86657439 -.00000005  00000-0  36490-3 0  9991
2 40754 102.4984 250.9337 0092921 185.5268 174.4766 12.25141710973881
Epoch: 2025-10-15T20:47Z
TLE epoch observation values (Epoch: 2025-10-15T20:47:52.027Z)
Latitude
0.00002°
Longitude
-85.66758°
Altitude
1,646.265 km
Speed
7.017 km/s
True Right ascension
16h 43m 44s
True Declination
0° 00' 00"
Sunlit
Object was in daylight at epoch
Visualization orbit readout
Latitude
Unknown
Longitude
Unknown
Altitude
Unknown
Speed
Unknown
Apparent Right ascension
Unknown
Apparent Declination
Unknown
Sunlit
N/A
Visualization observer readout
Local Sidereal Time
12:33:21
Azimuth
Unknown
Elevation
Unknown
Doppler factor
Unknown
Orbital elements
Apogee altitude
1,641.684 km
Perigee altitude
1,494.014 km
Semi-major axis
7,945.986 km
Eccentricity
0.00929
Inclination
102.4984°
RAAN
250.9337°
Arg. of periapsis
185.5268°
True anomaly
174.57792°
Mean anomaly
174.4766°
Eccentric anomaly
174.52737°
Mean motion
3.06423 °/min
Orbital period
117.48 mins
BSTAR
0.0003649
Loading maneuver chart data...
Computing Atmospheric mass density...
Loading historical data...
Loading historical data...
Loading historical data...
Loading historical data...
Loading historical data...
Loading historical data...
Loading historical data...

Documentation

Showing up to 5 results
|